TimeCDT,TemperatureF,Dew PointF,Humidity,Sea Level PressureIn,VisibilityMPH,Wind Direction,Wind SpeedMPH,Gust SpeedMPH,PrecipitationIn,Events,Conditions,WindDirDegrees,DateUTC
12:53 AM,46.9,39.0,74,30.16,10.0,Calm,Calm,-,N/A,,Clear,0,2012-10-30 05:53:00
1:53 AM,46.4,41.0,81,30.14,10.0,West,3.5,-,N/A,,Clear,270,2012-10-30 06:53:00
2:53 AM,46.9,39.9,77,30.15,10.0,Calm,Calm,-,N/A,,Clear,0,2012-10-30 07:53:00
3:53 AM,46.0,39.9,79,30.14,10.0,Calm,Calm,-,N/A,,Clear,0,2012-10-30 08:53:00
4:53 AM,46.0,39.0,76,30.14,10.0,Calm,Calm,-,N/A,,Clear,0,2012-10-30 09:53:00
5:53 AM,45.0,39.9,82,30.12,10.0,Calm,Calm,-,N/A,,Clear,0,2012-10-30 10:53:00
6:53 AM,46.0,39.9,79,30.13,10.0,Calm,Calm,-,N/A,,Clear,0,2012-10-30 11:53:00
7:53 AM,46.9,41.0,80,30.14,10.0,NNW,3.5,-,N/A,,Clear,340,2012-10-30 12:53:00
8:53 AM,55.0,46.9,74,30.15,10.0,Calm,Calm,-,N/A,,Partly Cloudy,0,2012-10-30 13:53:00
9:53 AM,60.1,48.0,64,30.15,10.0,East,3.5,-,N/A,,Partly Cloudy,90,2012-10-30 14:53:00
10:53 AM,64.9,46.9,52,30.14,10.0,Variable,3.5,-,N/A,,Partly Cloudy,0,2012-10-30 15:53:00
11:53 AM,69.1,46.0,44,30.13,10.0,SSW,5.8,-,N/A,,Partly Cloudy,200,2012-10-30 16:53:00
12:53 PM,71.1,46.0,41,30.12,10.0,SW,5.8,-,N/A,,Partly Cloudy,220,2012-10-30 17:53:00
1:53 PM,72.0,45.0,38,30.07,10.0,SW,5.8,-,N/A,,Scattered Clouds,220,2012-10-30 18:53:00
2:53 PM,73.9,45.0,35,30.04,10.0,West,6.9,-,N/A,,Scattered Clouds,260,2012-10-30 19:53:00
3:53 PM,75.0,46.9,37,30.02,10.0,Calm,Calm,-,N/A,,Scattered Clouds,0,2012-10-30 20:53:00
4:53 PM,73.0,52.0,48,30.01,10.0,SE,9.2,-,N/A,,Partly Cloudy,130,2012-10-30 21:53:00
5:53 PM,71.1,54.0,55,30.01,10.0,ESE,6.9,-,N/A,,Partly Cloudy,110,2012-10-30 22:53:00
6:53 PM,66.2,53.6,64,30.00,10.0,SSE,8.1,-,N/A,,Partly Cloudy,150,2012-10-30 23:53:00
7:53 PM,64.9,54.0,68,30.03,10.0,SE,3.5,-,N/A,,Partly Cloudy,130,2012-10-31 00:53:00
8:53 PM,62.1,54.0,75,30.04,10.0,SSE,4.6,-,N/A,,Partly Cloudy,150,2012-10-31 01:53:00
9:53 PM,62.1,54.0,75,30.05,10.0,South,3.5,-,N/A,,Clear,170,2012-10-31 02:53:00
10:53 PM,60.1,54.0,80,30.05,10.0,Calm,Calm,-,N/A,,Clear,0,2012-10-31 03:53:00
11:53 PM,57.9,54.0,87,30.04,10.0,South,4.6,-,N/A,,Clear,190,2012-10-31 04:53:00